Regional Weather Roundup
Issued by NWS

Home | Current Version | Previous Version | Graphics & Text | Print | Product List | Glossary On
Versions: 1 2 3 4 5 6 7 8 9 10 11 12 13 14 15 16 17 18 19 20 21 22 23 24 25 26 27 28 29 30 31 32 33 34 35 36 37 38 39 40 41 42 43 44 45 46 47 48 49 50
000
ASUS43 KIND 261259
RWRIN

WEATHER ROUNDUP FOR INDIANA
NATIONAL WEATHER SERVICE INDIANAPOLIS IN
900 AM EDT FRI AUG 26 2016

NOTE: "FAIR" INDICATES FEW OR NO CLOUDS BELOW 12,000 FEET WITH NO
SIGNIFICANT WEATHER AND/OR OBSTRUCTIONS TO VISIBILITY.

* - STATION DOES NOT REPORT WEATHER SUCH AS PRECIPITATION OR FOG.

+ - STATION NOT QUALITY CONTROLLED BY THE NATIONAL WEATHER SERVICE.
    USE DATA WITH CAUTION...ESPECIALLY DEWPOINT AND RELATIVE
    HUMIDITY OBSERVATIONS.

INZ001>003-010>013-019-020-261400-
NORTHWEST INDIANA

CITY           SKY/WX    TMP DP  RH WIND       PRES   REMARKS
GARY /AIRPORT/ PTSUNNY   73  70  88 VRB6      30.16R
KNOX *+        PTSUNNY   66  59  77 CALM      30.16R
MONTICELLO +   CLOUDY    70  66  88 CALM      30.14S FOG

$$

LMZ046-743>745-261400-
SOUTHERN LAKE MICHIGAN

STATION/POSITION TIME  TEMP    WIND        PRES    WAVE
                       AIR SEA DIR/SP/G            HT
                 (UTC) (F)     (DEG/KT/KT) (MB)    (FT)
BURNS HARBOR     1205   73      10/  8/ 11 1021.3R
MICHIGAN CITY    1200   73     340/  6/  6   N/A
5NW MICH CITY    1200   74 74  360/  8/ 12   N/A     2

$$

INZ004-005-014>016-021>024-261400-
NORTH CENTRAL INDIANA

CITY           SKY/WX    TMP DP  RH WIND       PRES   REMARKS
ELKHART        CLOUDY    68  66  94 CALM      30.17R FOG
GOSHEN         CLOUDY    68  66  93 CALM      30.16R FOG
SOUTH BEND     CLOUDY    69  67  93 CALM      30.17R

$$

INZ006>009-017-018-025>027-261400-
NORTHEAST INDIANA

CITY           SKY/WX    TMP DP  RH WIND       PRES   REMARKS
ANGOLA *+      SUNNY     68  61  77 CALM      30.17R
AUBURN +       MOSUNNY   68  64  88 CALM      30.17R
FORT WAYNE     PTSUNNY   72  69  90 E5        30.16R FOG

$$

INZ028-029-035-036-043>045-051>053-261400-
WEST CENTRAL INDIANA

CITY           SKY/WX    TMP DP  RH WIND       PRES   REMARKS
CRAWFORDSVL +  SUNNY     69  69 100 CALM      30.20R
LAFAYETTE      CLOUDY    72  72 100 NE7       30.13R
TERRE HAUTE    MOSUNNY   77  72  84 E8        30.13S

$$

INZ030>032-037>040-046>048-054>057-064-065-261400-
CENTRAL INDIANA

CITY           SKY/WX    TMP DP  RH WIND       PRES   REMARKS
ANDERSON       MOSUNNY   73  73 100 CALM      30.08
COLUMBUS       MOSUNNY   73  73 100 CALM      30.14S FOG
INDIANAPOLIS   CLOUDY    72  68  87 NE9       30.15R THUNDER
-EAGLE CREEK   CLOUDY    72  68  87 NE6       30.14F THUNDER
MT COMFORT *+  CLOUDY    75  73  94 W13       30.19R
SHELBYVILLE    MOSUNNY   76  73  91 CALM      30.15R FOG
ZIONSVILLE +   CLOUDY    71  70  98 CALM      30.16F

$$

INZ033-034-041-042-049-050-058-059-261400-
EAST CENTRAL INDIANA

CITY           SKY/WX    TMP DP  RH WIND       PRES   REMARKS
MUNCIE         CLOUDY    75  71  87 CALM      30.17R

$$

INZ060-061-067>069-081>083-085>088-261400-
SOUTHWEST INDIANA

CITY           SKY/WX    TMP DP  RH WIND       PRES   REMARKS
EVANSVILLE     SUNNY     78  73  84 CALM      30.13R
HUNTINGBURG *+ SUNNY     75  73  94 CALM      30.13R

$$

INZ062-063-066-070>080-084-089>092-261400-
SOUTH CENTRAL AND SOUTHEAST INDIANA

CITY           SKY/WX    TMP DP  RH WIND       PRES   REMARKS
BLOOMINGTON    MOSUNNY   76  71  85 CALM      30.14R
MADISON *+     MOSUNNY   73  72  94 CALM      30.17R

$$





USA.gov is the U.S. government's official web portal to all federal, state and local government web resources and services.